Temp
-8 -7 -7 -7 -7 -6 -6 -6 -6 -6 -6 -6 -5 -5 -5 -5 -5 -5 -5 -5 -5 -5 -5 -5 -5 -5 -6 -6 -6 -6 -6 -6 -7 -7 -8 -7 -8 -8 -8 -7 -7 -8 -7 -8 -7
-8 -8 -7 -7 -7 -7 -6 -6 -6 -6 -6 -6 -5 -5 -5 -5 -5 -5 -5 -5 -5 -5 -5 -5 -6 -6 -6 -6 -5 -7 -6 -6 -7 -7 -8 -8 -8 -7 -8 -7 -7 -8 -8 -8 -8
-8 -8 -8 -7 -7 -7 -7 -6 -6 -6 -6 -6 -6 -5 -5 -5 -5 -5 -5 -5 -5 -5 -5 -6 -6 -6 -6 -6 -6 -6 -6 -6 -8 -7 -7 -8 -9 -8 -9 -7 -7 -8 -8 -8 -8
-8 -8 -8 -8 -7 -7 -7 -7 -7 -6 -6 -6 -6 -6 -5 -5 -5 -5 -6 -6 -6 -6 -5 -6 -6 -6 -6 -6 -6 -4 -6 -7 -8 -8 -8 -8 -8 -7 -7 -7 -7 -6 -7 -8 -8
-9 -8 -8 -8 -8 -7 -7 -7 -7 -7 -6 -6 -6 -6 -6 -5 -5 -6 -6 -6 -6 -6 -6 -6 -6 -6 -7 -6 -6 -5 -7 -8 -7 -8 -7 -8 -7 -8 -7 -7 -7 -6 -7 -8 -7
-9 -8 -8 -8 -8 -8 -7 -7 -7 -7 -7 -6 -6 -6 -6 -6 -6 -6 -6 -6 -6 -6 -6 -6 -6 -6 -6 -6 -6 -6 -6 -7 -7 -7 -8 -8 -8 -8 -8 -8 -7 -7 -7 -7 -7
-9 -8 -8 -8 -8 -8 -8 -7 -7 -7 -7 -7 -7 -7 -6 -6 -6 -6 -6 -6 -6 -6 -6 -6 -6 -6 -6 -6 -5 -6 -6 -6 -7 -8 -8 -7 -7 -7 -8 -8 -7 -7 -7 -8 -7
-9 -8 -8 -8 -8 -8 -8 -8 -7 -7 -7 -7 -7 -7 -6 -6 -6 -6 -6 -6 -6 -6 -6 -6 -6 -6 -6 -6 -6 -6 -6 -7 -7 -7 -8 -8 -8 -8 -8 -8 -7 -8 -8 -8 -8
-9 -8 -8 -8 -8 -8 -8 -8 -7 -7 -7 -7 -7 -7 -7 -6 -6 -6 -6 -6 -6 -6 -6 -6 -6 -5 -5 -5 -5 -6 -7 -7 -7 -7 -7 -7 -8 -8 -9 -6 -7 -8 -8 -8 -9
-9 -9 -9 -8 -8 -8 -8 -8 -7 -7 -7 -7 -7 -7 -7 -7 -7 -6 -6 -6 -6 -6 -6 -6 -5 -5 -6 -6 -6 -6 -8 -9 -8 -7 -7 -7 -7 -8 -8 -7 -8 -8 -7 -8 -8
-9 -9 -9 -9 -9 -8 -8 -8 -8 -7 -7 -7 -7 -7 -7 -7 -7 -6 -6 -6 -6 -6 -6 -6 -5 -6 -6 -6 -6 -6 -7 -8 -8 -8 -8 -8 -7 -8 -7 -8 -8 -9 -7 -7 -9
-9 -9 -9 -9 -9 -9 -8 -8 -8 -8 -8 -7 -7 -7 -7 -7 -7 -7 -7 -6 -6 -6 -6 -6 -6 -6 -6 -6 -6 -6 -6 -7 -7 -8 -8 -9 -8 -8 -8 -8 -8 -9 -7 -7 -8
-9 -9 -9 -9 -9 -9 -8 -8 -8 -8 -8 -8 -7 -7 -7 -7 -7 -7 -7 -7 -7 -6 -6 -6 -6 -6 -6 -6 -6 -6 -6 -6 -7 -8 -8 -8 -8 -8 -8 -8 -8 -8 -7 -9 -7
-9 -8 -8 -8 -9 -8 -8 -8 -8 -8 -8 -8 -8 -7 -7 -7 -7 -7 -7 -7 -6 -7 -7 -6 -7 -6 -6 -6 -7 -6 -7 -7 -7 -8 -7 -8 -8 -8 -8 -8 -8 -8 -7 -7 -9
-9 -9 -8 -8 -8 -8 -8 -9 -8 -8 -8 -8 -8 -8 -8 -7 -8 -7 -7 -7 -7 -7 -7 -7 -7 -7 -7 -7 -7 -7 -7 -7 -7 -7 -7 -7 -7 -7 -8 -8 -8 -8 -8 -7 -8
-9 -9 -8 -9 -8 -8 -9 -9 -9 -9 -8 -9 -8 -8 -8 -8 -8 -8 -7 -7 -8 -7 -7 -7 -7 -7 -7 -7 -7 -7 -7 -7 -6 -7 -7 -7 -8 -9 -8 -8 -9 -8 -8 -7 -7
-9 -9 -9 -9 -8 -9 -9 -9 -9 -8 -9 -9 -9 -8 -8 -8 -8 -8 -7 -7 -8 -8 -8 -8 -7 -7 -7 -7 -7 -7 -7 -7 -7 -7 -7 -8 -8 -8 -8 -9 -9 -9 -8 -8 -9
-9 -9 -9 -9 -9 -9 -9 -9 -8 -8 -9 -10 -9 -9 -8 -8 -8 -8 -8 -7 -8 -8 -8 -8 -7 -7 -8 -8 -8 -7 -7 -7 -7 -8 -9 -8 -9 -8 -8 -9 -8 -9 -9 -9 -8
-9 -9 -9 -9 -9 -9 -9 -8 -8 -9 -9 -9 -10 -10 -11 -10 -9 -8 -8 -8 -8 -8 -8 -8 -8 -9 -9 -9 -8 -8 -8 -7 -7 -8 -9 -9 -8 -8 -7 -9 -9 -9 -9 -8 -9
-10 -10 -10 -9 -9 -9 -9 -8 -9 -10 -9 -9 -9 -9 -10 -10 -9 -10 -11 -10 -9 -8 -8 -9 -8 -9 -10 -9 -9 -8 -8 -8 -8 -8 -8 -8 -8 -9 -9 -9 -9 -10 -9 -9 -9
-10 -10 -10 -10 -10 -9 -9 -9 -9 -10 -10 -10 -9 -9 -8 -9 -10 -10 -10 -10 -10 -9 -8 -9 -9 -9 -9 -9 -9 -9 -8 -8 -8 -9 -9 -9 -9 -9 -9 -8 -9 -8 -8 -10 -10
-11 -10 -10 -10 -10 -10 -9 -9 -9 -10 -9 -9 -10 -10 -9 -9 -9 -10 -10 -10 -10 -10 -10 -9 -9 -8 -9 -9 -9 -9 -9 -9 -9 -8 -9 -9 -9 -9 -9 -9 -9 -9 -9 -10 -10
-11 -11 -10 -10 -10 -10 -10 -10 -10 -10 -9 -9 -9 -9 -10 -10 -10 -10 -10 -10 -10 -10 -10 -10 -11 -9 -8 -9 -9 -9 -9 -9 -9 -9 -9 -9 -9 -9 -9 -9 -9 -9 -9 -9 -11
-11 -11 -11 -10 -11 -10 -10 -10 -10 -10 -10 -10 -9 -9 -10 -10 -10 -9 -10 -10 -11 -10 -10 -10 -10 -9 -9 -9 -10 -10 -9 -9 -9 -9 -9 -9 -10 -9 -9 -9 -9 -9 -9 -8 -10
-12 -11 -10 -10 -10 -10 -10 -10 -10 -10 -10 -10 -10 -9 -9 -9 -10 -10 -10 -10 -10 -11 -11 -11 -10 -10 -9 -9 -9 -10 -9 -9 -9 -9 -9 -9 -9 -9 -9 -10 -9 -9 -8 -7 -11
-13 -13 -13 -13 -12 -11 -10 -10 -10 -10 -11 -10 -10 -10 -10 -10 -10 -10 -10 -11 -11 -11 -11 -11 -11 -10 -9 -9 -10 -9 -9 -10 -9 -9 -10 -9 -9 -10 -10 -10 -10 -9 -10 -8 -10
-14 -13 -13 -13 -13 -13 -13 -12 -11 -11 -11 -11 -10 -10 -10 -10 -10 -10 -10 -11 -11 -11 -10 -9 -10 -10 -9 -9 -10 -9 -10 -9 -10 -9 -10 -9 -9 -10 -10 -10 -10 -10 -10 -9 -10
Height
5882 5884 5885 5888 5889 5891 5893 5896 5897 5900 5901 5903 5905 5906 5908 5909 5910 5912 5913 5914 5915 5915 5914 5914 5914 5915 5914 5912 5912 5913 5914 5914 5917 5917 5917 5914 5917 5915 5913 5910 5903 5909 5907 5904 5899
5879 5881 5883 5885 5887 5889 5891 5893 5896 5898 5900 5901 5903 5904 5906 5908 5909 5911 5913 5913 5914 5915 5915 5914 5915 5915 5914 5914 5914 5916 5914 5916 5917 5918 5918 5917 5913 5909 5913 5913 5907 5906 5905 5901 5899
5877 5879 5881 5883 5885 5887 5889 5891 5893 5895 5897 5899 5901 5902 5904 5906 5908 5909 5910 5912 5913 5914 5914 5914 5915 5916 5915 5914 5915 5915 5914 5915 5917 5918 5918 5916 5914 5909 5908 5911 5911 5906 5903 5901 5902
5873 5876 5878 5880 5882 5884 5886 5888 5891 5893 5895 5897 5898 5900 5902 5904 5906 5907 5909 5910 5912 5913 5914 5914 5915 5915 5915 5916 5915 5913 5913 5913 5916 5916 5917 5918 5918 5909 5910 5912 5910 5906 5902 5901 5900
5870 5873 5875 5877 5879 5881 5883 5886 5888 5890 5892 5894 5896 5897 5899 5902 5903 5905 5906 5908 5910 5912 5913 5914 5914 5914 5915 5915 5915 5912 5912 5914 5916 5915 5918 5917 5915 5911 5908 5907 5906 5904 5900 5898 5894
5866 5869 5872 5874 5876 5878 5881 5883 5885 5887 5889 5891 5893 5894 5896 5900 5900 5902 5904 5906 5908 5909 5911 5913 5913 5913 5913 5915 5916 5914 5912 5913 5916 5917 5917 5915 5914 5914 5906 5905 5903 5901 5897 5893 5890
5862 5865 5868 5870 5873 5875 5877 5880 5882 5884 5886 5888 5890 5892 5894 5898 5898 5900 5903 5905 5906 5908 5909 5911 5912 5913 5913 5913 5913 5912 5912 5913 5912 5910 5913 5909 5912 5913 5907 5904 5901 5896 5892 5890 5888
5858 5861 5864 5867 5869 5871 5874 5876 5879 5881 5883 5885 5887 5889 5891 5893 5897 5898 5900 5902 5904 5906 5907 5908 5909 5910 5911 5912 5912 5911 5911 5910 5908 5910 5908 5908 5909 5909 5905 5901 5893 5893 5891 5888 5885
5854 5857 5860 5863 5866 5868 5871 5872 5875 5877 5880 5882 5885 5887 5889 5890 5894 5896 5897 5899 5901 5903 5904 5905 5907 5908 5909 5910 5911 5910 5907 5906 5907 5906 5906 5904 5905 5902 5898 5896 5896 5880 5888 5888 5885
5849 5852 5855 5859 5861 5864 5866 5868 5871 5874 5876 5879 5881 5885 5887 5889 5891 5892 5894 5896 5898 5900 5902 5903 5904 5906 5906 5907 5909 5907 5904 5899 5905 5905 5908 5903 5903 5898 5896 5890 5886 5864 5865 5874 5886
5844 5848 5850 5853 5857 5859 5862 5864 5869 5871 5872 5874 5878 5879 5883 5885 5888 5889 5891 5893 5895 5897 5898 5899 5902 5903 5903 5904 5904 5904 5904 5902 5902 5903 5903 5901 5900 5897 5893 5889 5882 5879 5876 5866 5880
5840 5843 5846 5849 5852 5855 5857 5859 5862 5865 5868 5869 5873 5875 5878 5881 5883 5885 5888 5890 5891 5893 5894 5897 5899 5898 5899 5900 5901 5900 5901 5901 5901 5901 5902 5898 5898 5898 5894 5895 5891 5883 5872 5869 5864
5834 5837 5840 5844 5847 5850 5851 5854 5856 5859 5862 5865 5867 5871 5873 5875 5878 5881 5884 5884 5886 5888 5890 5892 5894 5895 5895 5896 5897 5897 5897 5898 5899 5900 5900 5900 5895 5892 5892 5890 5889 5880 5875 5857 5866
5827 5830 5834 5837 5842 5842 5845 5850 5850 5853 5855 5864 5861 5866 5867 5869 5873 5874 5878 5879 5881 5884 5885 5886 5889 5890 5891 5893 5892 5894 5894 5894 5894 5895 5895 5896 5890 5889 5887 5886 5886 5884 5881 5874 5878
5820 5823 5827 5830 5833 5834 5841 5840 5843 5847 5849 5854 5855 5858 5861 5864 5866 5867 5867 5872 5875 5877 5879 5884 5884 5886 5887 5888 5889 5891 5890 5890 5889 5889 5889 5890 5887 5883 5883 5883 5882 5878 5876 5876 5872
5812 5815 5820 5822 5824 5828 5833 5834 5837 5841 5844 5845 5848 5852 5855 5857 5858 5860 5860 5865 5868 5869 5871 5877 5878 5880 5883 5883 5885 5886 5886 5886 5885 5885 5884 5882 5880 5878 5880 5879 5877 5876 5874 5870 5864
5803 5806 5811 5813 5817 5818 5822 5825 5829 5831 5839 5843 5840 5843 5847 5850 5852 5852 5854 5858 5862 5863 5867 5871 5873 5874 5877 5879 5880 5881 5882 5882 5881 5881 5880 5878 5879 5876 5876 5875 5873 5865 5867 5865 5868
5795 5798 5802 5804 5809 5810 5813 5817 5819 5827 5833 5836 5835 5835 5838 5843 5846 5848 5848 5851 5857 5857 5861 5863 5867 5871 5874 5876 5877 5876 5877 5878 5876 5876 5877 5876 5873 5873 5865 5873 5869 5868 5869 5870 5870
5786 5790 5793 5796 5800 5802 5806 5808 5815 5820 5824 5824 5826 5828 5833 5836 5840 5841 5844 5846 5850 5852 5854 5858 5861 5865 5868 5869 5871 5874 5871 5874 5872 5873 5871 5872 5873 5864 5864 5870 5868 5867 5868 5871 5869
5776 5781 5782 5786 5790 5793 5799 5804 5809 5812 5812 5815 5819 5824 5827 5832 5836 5840 5841 5843 5845 5847 5850 5855 5855 5859 5863 5866 5864 5868 5871 5869 5869 5869 5868 5870 5868 5867 5865 5870 5873 5863 5861 5865 5865
5767 5770 5774 5778 5780 5784 5791 5798 5801 5804 5806 5811 5814 5816 5818 5824 5827 5832 5839 5841 5841 5844 5845 5850 5851 5857 5858 5862 5863 5863 5865 5864 5865 5866 5867 5869 5864 5862 5863 5865 5864 5859 5857 5863 5863
5758 5759 5765 5769 5773 5776 5783 5788 5793 5797 5798 5802 5805 5810 5815 5819 5821 5825 5829 5835 5841 5841 5841 5843 5846 5849 5854 5857 5860 5861 5861 5860 5860 5862 5864 5864 5858 5850 5850 5853 5861 5862 5858 5856 5861
5747 5748 5755 5761 5764 5769 5774 5777 5783 5788 5791 5795 5799 5803 5807 5812 5815 5817 5823 5831 5831 5835 5838 5840 5839 5842 5847 5853 5852 5855 5856 5855 5856 5857 5859 5860 5858 5855 5859 5859 5858 5860 5854 5849 5852
5735 5737 5740 5746 5752 5756 5762 5766 5770 5777 5783 5787 5791 5795 5799 5803 5808 5812 5817 5824 5825 5830 5832 5833 5834 5837 5842 5847 5848 5846 5849 5852 5853 5853 5856 5856 5849 5849 5852 5852 5853 5844 5839 5837 5844
5722 5722 5727 5732 5740 5743 5748 5754 5761 5769 5774 5777 5781 5788 5792 5796 5801 5805 5814 5817 5816 5820 5824 5826 5829 5831 5836 5838 5843 5842 5846 5847 5848 5850 5851 5852 5846 5843 5844 5843 5845 5834 5829 5830 5839
5712 5715 5721 5722 5730 5735 5742 5748 5754 5759 5765 5769 5775 5781 5785 5788 5793 5798 5805 5810 5810 5810 5815 5818 5821 5826 5829 5833 5835 5832 5836 5843 5843 5841 5846 5847 5843 5844 5843 5834 5839 5831 5829 5821 5842
5701 5703 5707 5710 5715 5720 5728 5735 5740 5745 5751 5756 5762 5769 5774 5780 5781 5786 5792 5799 5802 5803 5804 5809 5812 5817 5820 5828 5829 5831 5834 5834 5837 5840 5842 5841 5840 5839 5843 5845 5843 5841 5840 5838 5837
Wind_Speed
16 16 16 16 16 15 14 14 14 14 14 13 13 11 11 10 8 7 5 3 2 2 4 6 7 7 5 5 4 5 12 11 12 13 15 15 17 17 26 21 27 22 19 18 25
19 18 17 17 17 16 16 15 14 14 14 13 13 13 13 12 11 10 7 6 4 3 4 6 7 8 6 3 5 15 14 10 12 11 7 6 15 21 12 15 20 20 15 19 25
20 19 19 18 17 16 16 16 15 15 15 14 13 13 13 13 13 12 10 8 6 4 3 6 6 7 8 5 4 13 12 11 12 11 11 9 14 29 13 13 12 15 14 19 19
22 21 19 18 18 17 17 16 16 16 16 15 15 14 13 11 13 12 12 10 8 6 5 6 5 5 6 5 3 6 10 11 8 11 10 8 10 16 20 19 17 18 13 17 13
24 22 21 20 19 18 17 17 16 17 16 16 15 14 14 10 12 11 12 12 9 7 6 6 6 6 6 5 4 6 4 5 2 3 9 6 12 18 20 15 19 20 14 12 13
25 22 21 20 20 19 18 17 17 16 16 16 15 15 14 9 12 11 13 12 10 9 8 7 7 6 7 6 6 3 3 5 4 6 8 9 12 19 22 24 23 18 12 9 12
25 23 23 21 20 20 20 18 17 16 15 14 15 15 14 11 13 13 13 12 11 11 10 9 8 8 8 6 6 6 5 4 9 11 3 15 14 17 20 28 20 21 13 10 9
26 24 22 21 20 19 18 18 18 18 17 15 14 16 15 15 13 14 13 13 12 12 11 11 10 10 6 5 7 8 10 11 14 13 10 17 12 15 19 30 22 19 17 9 8
28 27 25 23 21 20 20 19 18 18 19 18 16 16 17 19 16 13 14 13 12 11 11 11 12 10 6 3 3 7 9 17 20 19 7 11 14 18 29 20 27 19 16 11 8
27 26 25 24 23 22 22 22 21 21 19 19 20 19 17 17 16 19 19 17 16 14 14 15 14 12 11 7 6 10 7 30 19 11 10 6 18 13 30 35 36 30 4 5 12
26 25 24 23 21 20 21 23 24 24 23 25 20 24 21 20 18 20 20 20 20 18 17 17 15 13 13 11 11 11 6 18 14 12 15 21 16 19 28 31 33 40 35 7 13
26 25 25 25 24 23 24 24 23 24 22 26 27 24 23 25 22 21 20 19 19 19 19 17 14 16 15 14 13 13 14 14 12 10 15 23 20 21 20 23 26 29 33 25 10
29 28 28 28 28 28 29 26 27 26 25 22 23 27 28 28 26 24 22 23 21 22 22 21 19 16 14 14 16 15 15 14 15 10 16 20 26 23 20 27 27 34 36 47 8
32 32 32 32 31 32 31 27 29 29 29 23 27 22 27 31 30 32 28 29 27 25 25 23 19 19 16 15 17 13 14 14 13 18 22 18 23 25 24 27 29 29 33 18 11
37 37 36 36 35 37 33 33 32 29 32 28 29 29 26 27 26 29 34 30 30 30 30 22 23 19 18 15 16 11 15 17 17 19 19 17 25 27 26 23 24 30 32 22 29
37 37 37 37 38 37 34 36 34 33 30 28 30 27 28 26 27 28 31 28 28 30 31 27 24 24 19 17 16 15 17 19 17 17 20 9 13 20 19 25 30 27 25 28 26
34 34 34 36 36 37 37 37 36 36 28 24 28 30 26 24 22 24 25 23 26 27 25 23 22 22 19 15 17 18 17 18 19 15 6 10 12 19 16 28 21 25 30 30 28
32 32 31 32 31 33 34 36 36 32 27 20 26 27 27 22 22 21 24 20 19 25 23 23 19 15 10 14 17 21 20 19 19 7 10 12 18 32 23 19 21 21 24 25 23
37 35 35 34 32 33 32 33 30 25 24 30 32 28 17 17 12 20 23 24 18 21 25 22 23 4 20 20 17 13 23 16 16 16 23 19 16 29 19 13 17 22 27 18 11
36 36 38 36 34 33 32 29 24 26 30 32 34 33 32 30 22 22 22 22 16 19 22 19 24 17 10 13 24 18 18 21 15 12 23 21 20 24 26 14 18 23 26 15 13
34 35 37 37 38 37 31 28 28 26 30 29 32 35 35 26 25 17 18 26 18 14 20 22 25 24 25 16 25 29 18 25 20 11 4 9 25 23 17 10 11 33 28 12 12
33 37 37 37 39 39 34 32 31 30 33 32 32 27 25 29 28 28 24 24 7 15 16 19 23 28 31 25 21 26 22 24 22 18 20 21 25 22 26 22 27 32 35 14 13
37 39 37 36 38 38 37 37 35 34 34 34 32 30 28 26 37 36 29 22 25 21 24 20 28 27 22 27 20 19 17 16 20 20 26 25 24 31 29 32 32 33 41 29 13
41 42 44 42 40 41 40 41 40 38 37 35 33 29 32 30 33 38 38 32 25 19 30 30 32 26 18 27 18 27 20 7 15 21 18 29 29 31 36 36 35 32 33 29 5
40 47 48 48 47 47 46 46 43 39 41 40 39 32 32 33 32 31 30 34 30 32 31 32 36 30 20 30 29 21 16 21 28 18 28 20 26 32 35 37 39 38 19 20 8
34 36 37 38 41 45 45 45 44 43 41 43 40 35 32 34 34 33 30 39 35 30 45 35 37 32 27 35 28 26 18 17 19 14 17 20 27 32 34 36 40 40 19 8 0
29 35 39 41 40 40 37 41 46 47 46 47 44 40 39 37 40 38 37 40 42 37 35 32 39 36 33 30 38 31 15 20 21 20 19 24 29 33 34 30 24 19 11 11 8
Wind_Direction
215 216 216 217 214 214 212 213 214 219 221 227 229 230 225 219 219 235 241 218 167 120 101 107 115 120 148 168 171 44 66 94 64 65 61 20 355 322 327 341 349 343 337 2 3
218 219 220 220 221 220 223 222 223 228 232 234 237 238 236 234 235 236 232 220 200 156 127 121 122 125 136 149 88 100 80 81 61 35 21 74 287 277 337 349 336 342 343 7 1
222 221 225 226 227 226 227 229 229 229 232 234 237 240 241 236 233 230 223 215 203 175 161 148 135 130 132 118 75 116 113 82 53 27 6 51 299 326 315 324 330 320 334 3 358
223 222 222 226 227 228 229 231 233 235 235 238 239 242 244 239 233 222 215 211 206 184 184 183 168 145 142 132 149 50 89 87 52 343 348 6 309 301 325 323 345 316 340 352 349
225 226 227 226 229 230 232 234 236 237 238 238 238 240 241 238 231 222 209 207 208 201 194 194 199 190 185 200 206 116 72 27 37 323 309 336 334 335 333 333 332 327 329 333 332
223 222 227 230 231 231 232 234 236 239 239 242 242 241 242 228 227 212 204 207 215 214 214 218 222 229 237 221 244 274 163 203 296 293 344 328 315 327 318 326 322 300 303 314 335
225 225 229 232 231 233 231 234 236 238 241 241 241 240 234 220 227 215 212 217 222 227 234 232 241 254 262 268 275 254 215 265 244 213 226 278 309 315 305 309 318 312 301 300 338
228 226 227 229 231 233 235 236 237 241 242 242 242 238 232 229 226 224 230 233 236 240 245 244 246 256 258 277 278 288 298 246 259 247 239 263 293 303 294 314 284 320 317 301 323
228 227 227 230 233 234 235 238 240 243 243 241 238 239 236 232 227 234 242 243 246 246 254 259 255 259 263 273 306 285 300 296 292 296 234 283 313 310 315 320 312 232 326 308 323
226 227 228 229 233 237 238 239 241 243 246 242 239 239 236 241 240 238 245 250 256 261 266 268 268 264 265 272 278 267 300 317 345 8 325 337 326 301 297 305 318 320 220 129 333
227 226 226 228 230 235 240 244 244 243 246 249 246 246 241 239 241 246 247 252 255 259 264 267 270 271 264 269 279 279 265 292 294 330 317 304 317 290 304 309 324 323 321 208 351
223 223 226 230 234 238 243 247 249 246 247 248 245 250 250 243 249 249 251 250 252 254 261 267 271 263 268 274 281 285 279 277 273 288 298 301 297 308 310 322 322 310 323 311 357
232 231 234 238 241 244 245 247 248 251 245 251 253 247 251 250 248 249 253 255 254 257 261 263 262 263 267 273 277 282 283 279 276 232 258 270 296 315 310 310 306 311 324 307 304
240 241 244 247 248 250 252 252 252 253 254 243 254 249 252 254 252 257 249 256 258 256 259 258 260 265 269 270 273 282 271 268 274 276 263 236 260 268 282 285 296 309 305 328 299
241 242 244 248 250 251 250 251 252 255 257 253 243 252 254 254 256 250 252 249 253 254 252 256 255 260 267 268 267 265 262 267 273 287 289 280 270 279 277 291 290 297 319 330 323
244 246 247 249 250 252 252 252 253 253 253 256 257 251 250 256 256 253 251 249 247 251 253 251 254 256 255 260 261 258 261 273 282 286 288 268 264 277 280 291 293 302 327 320 332
242 244 245 247 248 249 249 249 250 248 249 246 263 264 254 249 244 249 253 244 242 251 253 251 249 250 258 254 259 260 267 275 281 294 259 283 278 268 267 274 290 319 327 337 328
242 243 244 245 246 249 248 247 247 248 245 237 247 259 259 245 233 242 257 254 235 247 239 234 240 247 279 262 258 261 265 265 280 252 252 267 287 324 251 239 293 315 314 316 322
243 243 242 243 242 245 246 245 245 241 235 226 222 226 229 254 235 244 249 252 249 241 234 242 234 149 295 285 273 280 261 267 273 226 233 261 299 289 281 294 278 283 289 319 308
239 238 237 237 238 240 243 244 240 235 235 225 229 225 223 232 227 220 246 274 267 242 231 226 241 193 205 267 275 276 253 253 260 272 242 240 269 255 265 239 268 281 288 316 303
240 238 236 237 236 239 239 239 236 230 231 238 240 231 232 224 197 198 237 245 269 271 233 217 233 210 196 202 256 272 279 251 250 238 228 286 278 287 286 223 214 292 295 295 280
241 239 235 235 239 237 235 234 233 234 238 235 223 237 243 238 209 194 209 253 213 276 268 242 229 227 218 217 243 267 286 267 244 235 218 247 283 303 305 309 298 293 289 224 259
246 245 242 237 238 241 237 233 230 230 238 239 239 228 223 224 214 203 196 186 222 216 230 229 234 240 228 213 229 258 271 259 253 247 207 229 257 262 266 276 275 281 267 237 228
245 245 243 236 232 233 235 235 230 225 228 237 237 228 225 217 223 224 211 192 204 203 226 232 230 236 221 192 221 241 256 250 259 272 241 233 257 268 278 293 294 299 263 209 170
242 241 242 241 235 233 230 230 232 231 227 226 232 231 226 224 223 223 224 203 211 200 219 226 218 229 209 194 212 228 263 243 233 254 254 256 259 278 286 293 306 305 347 159 147
243 242 243 247 245 242 238 237 235 229 228 233 229 227 227 229 223 221 209 209 219 222 215 223 231 232 235 211 218 239 209 267 290 257 290 245 262 272 281 293 295 322 316 104 69
241 239 239 238 236 230 227 231 231 226 228 227 228 221 228 229 225 220 213 208 217 220 238 233 231 236 231 217 217 223 213 230 232 249 242 245 250 258 272 282 302 303 288 302 307